Weather History for West Yellowstone, MT

Change the Weather History Date:

Thursday, November 8, 2012

  Actual Average Record
Temperature  
Mean Temperature 38 °F -  
Max Temperature 44 °F 35 °F 44 °F (2012)
Min Temperature 32 °F 17 °F 19 °F (2011)
Degree Days  
Heating Degree Days 27    
Moisture  
Dew Point -    
Average Humidity    
Maximum Humidity    
Minimum Humidity    
Precipitation  
Precipitation 0.02 in - - ()
Sea Level Pressure  
Sea Level Pressure 29.74 in    
Wind  
Wind Speed 3 mph (SSE)    
Max Wind Speed 16 mph    
Max Gust Speed 21 mph    
Visibility 9 miles    
Events Rain    
Averages and records for this station are not official NWS values.
T = Trace of Precipitation, MM = Missing Value Source: NWS Daily Summary

Daily Weather History Graph

Daily Weather History Graph

Search for Another Location

Airport:

Trip Planner

Search our weather history database for the weather conditions in past years. The results will help you decide how hot, cold, wet, or windy it might be!

Date:

Astronomy

Nov. 08, 2012 Rise Set
Actual Time 7:12 AM MST 5:03 PM MST
Civil Twilight 6:41 AM MST 5:34 PM MST
Nautical Twilight 6:06 AM MST 6:09 PM MST
Astronomical Twilight 5:32 AM MST 6:43 PM MST
Moon 12:57 AM MST (11/8) 1:58 PM MST (11/8)
Length of Visible Light 10h 52m
Length of Day
9h 50m
Waning Crescent, 32% of the Moon is Illuminated
Nov 8
Waning Crescent
Nov 13
New
Nov 20
First Quarter
Nov 28
Full
Dec 6
Last Quarter

Hourly Weather History & Observations

Time (MST) Temp. Windchill Dew Point Humidity Pressure Visibility Wind Dir Wind Speed Gust Speed Precip Events Conditions
12:10 AM 39.2 °F 34.2 °F - N/A% 29.92 in 10.0 mi ESE 6.9 mph - N/A   Clear
12:30 AM 39.2 °F 34.2 °F - N/A% 29.92 in 10.0 mi SSE 6.9 mph - N/A   Clear
12:50 AM 37.4 °F 32.1 °F - N/A% 29.92 in 10.0 mi SE 6.9 mph - N/A   Clear
1:10 AM 35.6 °F 32.8 °F - N/A% 29.91 in 10.0 mi SSE 3.5 mph - N/A   Clear
1:30 AM 35.6 °F 32.8 °F - N/A% 29.90 in 10.0 mi SSE 3.5 mph - N/A   Clear
1:50 AM 32.0 °F - - N/A% 29.90 in 10.0 mi Calm Calm - N/A   Clear
2:10 AM 33.8 °F - - N/A% 29.90 in 10.0 mi Calm Calm - N/A   Scattered Clouds
2:30 AM 32.0 °F - - N/A% 29.89 in 10.0 mi Calm Calm - N/A   Mostly Cloudy
2:50 AM 32.0 °F - - N/A% 29.89 in 10.0 mi Calm Calm - N/A   Overcast
3:10 AM 32.0 °F - - N/A% 29.88 in 10.0 mi Calm Calm - N/A   Overcast
3:30 AM 32.0 °F 28.7 °F - N/A% 29.88 in 10.0 mi West 3.5 mph - N/A   Overcast
3:50 AM 32.0 °F - - N/A% 29.87 in 10.0 mi Calm Calm - N/A   Overcast
4:10 AM 32.0 °F - - N/A% 29.87 in 10.0 mi Calm Calm - N/A   Overcast
4:30 AM 32.0 °F - - N/A% 29.87 in 10.0 mi Calm Calm - N/A   Overcast
4:50 AM 32.0 °F - - N/A% 29.86 in 10.0 mi Calm Calm - N/A   Overcast
5:10 AM 35.6 °F 32.8 °F - N/A% 29.86 in 10.0 mi ESE 3.5 mph - N/A   Mostly Cloudy
5:50 AM 37.4 °F 34.9 °F - N/A% 29.83 in 10.0 mi NE 3.5 mph - N/A   Mostly Cloudy
6:10 AM 37.4 °F 34.9 °F - N/A% 29.82 in 10.0 mi NNE 3.5 mph - N/A   Overcast
6:30 AM 32.0 °F 27.5 °F - N/A% 29.82 in 10.0 mi WSW 4.6 mph - N/A   Overcast
6:50 AM 32.0 °F - - N/A% 29.81 in 10.0 mi Calm Calm - N/A   Overcast
7:10 AM 33.8 °F - - N/A% 29.80 in 10.0 mi Calm Calm - N/A   Overcast
7:30 AM 33.8 °F 30.8 °F - N/A% 29.80 in 10.0 mi WNW 3.5 mph - N/A   Overcast
7:50 AM 35.6 °F 28.6 °F - N/A% 29.79 in 10.0 mi ESE 9.2 mph - N/A   Mostly Cloudy
8:10 AM 37.4 °F - - N/A% 29.80 in 10.0 mi Calm Calm - N/A   Overcast
8:30 AM 37.4 °F - - N/A% 29.79 in 10.0 mi Calm Calm - N/A   Overcast
8:50 AM 37.4 °F 34.9 °F - N/A% 29.79 in 10.0 mi SW 3.5 mph - N/A   Overcast
9:10 AM 37.4 °F 32.1 °F - N/A% 29.79 in 10.0 mi South 6.9 mph - N/A   Overcast
9:30 AM 37.4 °F - - N/A% 29.78 in 10.0 mi Calm Calm - N/A   Mostly Cloudy
9:50 AM 39.2 °F 35.9 °F - N/A% 29.75 in 10.0 mi ENE 4.6 mph - N/A   Partly Cloudy
10:10 AM 41.0 °F 39.0 °F - N/A% 29.76 in 10.0 mi East 3.5 mph - N/A   Scattered Clouds
10:30 AM 41.0 °F 38.0 °F - N/A% 29.76 in 10.0 mi SSW 4.6 mph - N/A Rain Light Rain
10:50 AM 44.6 °F 41.4 °F - N/A% 29.75 in 10.0 mi South 5.8 mph - N/A   Mostly Cloudy
11:10 AM 44.6 °F 37.4 °F - N/A% 29.74 in 10.0 mi South 16.1 mph 20.7 mph N/A   Mostly Cloudy
11:30 AM 44.6 °F 38.1 °F - N/A% 29.73 in 8.0 mi SSW 13.8 mph 18.4 mph N/A   Mostly Cloudy
11:50 AM 42.8 °F 38.6 °F - N/A% 29.72 in 10.0 mi SSE 6.9 mph - N/A   Mostly Cloudy
12:10 PM 42.8 °F 40.1 °F - N/A% 29.70 in 10.0 mi ESE 4.6 mph - N/A   Overcast
12:30 PM 42.8 °F 39.3 °F - N/A% 29.70 in 10.0 mi East 5.8 mph - N/A   Overcast
12:50 PM 42.8 °F 41.1 °F - N/A% 29.70 in 6.0 mi NW 3.5 mph - N/A Rain Light Rain
1:10 PM 41.0 °F 39.0 °F - N/A% 29.70 in 10.0 mi ENE 3.5 mph - N/A Rain Light Rain
1:30 PM 39.2 °F - - N/A% 29.69 in 10.0 mi Calm Calm - N/A   Overcast
1:50 PM 41.0 °F 33.1 °F - N/A% 29.70 in 8.0 mi SSW 15.0 mph 20.7 mph N/A Rain Light Rain
2:10 PM 39.2 °F 35.0 °F - N/A% 29.71 in 3.0 mi WSW 5.8 mph - 0.01 in Rain Light Rain
2:30 PM 39.2 °F - - N/A% 29.70 in 9.0 mi Calm Calm - 0.01 in Rain Light Rain
2:50 PM 39.2 °F - - N/A% 29.69 in 10.0 mi Calm Calm - 0.01 in   Overcast
3:10 PM 39.2 °F - - N/A% 29.68 in 10.0 mi Calm Calm - N/A   Overcast
3:30 PM 39.2 °F 35.9 °F - N/A% 29.68 in 10.0 mi East 4.6 mph - N/A   Overcast
3:50 PM 39.2 °F - - N/A% 29.69 in 10.0 mi Calm Calm - N/A Rain Light Rain
4:10 PM 39.2 °F - - N/A% 29.68 in 10.0 mi Calm Calm - N/A   Mostly Cloudy
4:30 PM 37.4 °F - - N/A% 29.69 in 9.0 mi Calm Calm - N/A Rain Light Rain
4:50 PM 37.4 °F 32.8 °F - N/A% 29.70 in 3.0 mi WNW 5.8 mph - N/A Rain Light Rain
5:10 PM 37.4 °F - - N/A% 29.70 in 7.0 mi Calm Calm - N/A Rain Light Rain
5:30 PM 35.6 °F - - N/A% 29.69 in 10.0 mi Calm Calm - 0.01 in Rain Light Rain
5:50 PM 35.6 °F 32.8 °F - N/A% 29.68 in 10.0 mi ESE 3.5 mph - 0.01 in Rain Light Rain
6:10 PM 35.6 °F - - N/A% 29.69 in 10.0 mi Calm Calm - N/A   Mostly Cloudy
6:30 PM 35.6 °F 32.8 °F - N/A% 29.69 in 10.0 mi NNE 3.5 mph - N/A Rain Light Rain
6:50 PM 33.8 °F 29.6 °F - N/A% 29.68 in 10.0 mi NNE 4.6 mph - N/A   Mostly Cloudy
7:10 PM 33.8 °F - - N/A% 29.67 in 8.0 mi Calm Calm - N/A   Mostly Cloudy
7:30 PM 32.0 °F - - N/A% 29.65 in 5.0 mi Calm Calm - N/A   Haze
7:50 PM 32.0 °F 27.5 °F - N/A% 29.63 in 6.0 mi NW 4.6 mph - N/A   Haze
8:10 PM 32.0 °F - - N/A% 29.62 in 5.0 mi Calm Calm - N/A   Haze
8:30 PM 32.0 °F - - N/A% 29.61 in 7.0 mi Calm Calm - N/A   Clear
8:50 PM 32.0 °F 28.7 °F - N/A% 29.59 in 5.0 mi WNW 3.5 mph - N/A   Haze
9:10 PM 32.0 °F 28.7 °F - N/A% 29.59 in 7.0 mi WNW 3.5 mph - N/A   Overcast
9:30 PM 32.0 °F - - N/A% 29.60 in 9.0 mi Calm Calm - N/A   Mostly Cloudy
9:50 PM 32.0 °F - - N/A% 29.59 in 10.0 mi Calm Calm - N/A   Overcast
10:10 PM 32.0 °F 28.7 °F - N/A% 29.60 in 9.0 mi SSW 3.5 mph - N/A   Overcast
10:30 PM 32.0 °F - - N/A% 29.60 in 9.0 mi Calm Calm - N/A   Overcast
10:50 PM 32.0 °F - - N/A% 29.60 in 5.0 mi Calm Calm - N/A Rain Light Rain
11:10 PM 32.0 °F 28.7 °F - N/A% 29.60 in 8.0 mi SSE 3.5 mph - N/A Rain Light Rain
11:30 PM 32.0 °F - - N/A% 29.59 in 10.0 mi Calm Calm - N/A Rain Light Rain
11:50 PM 32.0 °F - - N/A% 29.59 in 9.0 mi Calm Calm - N/A   Overcast